Location: General Nathan Twining Observatory
(34.5931°N, 106.8201°W)
Time: 01:24:19
(UTC-07:00)

Daily predictions for brighter satellites

Satellite Brightness Start Highest point End
(mag) Time Altitude Azimuth Time Altitude Azimuth Time Altitude Azimuth
SL-16 R/B 4.3 04:01:28 19° SE 04:01:28 19° SE 04:03:05 10° SE
USA 229 DEB 4.2 04:41:19 49° SSW 04:41:19 49° SSW 04:46:45 10° SSE
USA 229 4.1 04:41:21 50° SSW 04:41:21 50° SSW 04:46:51 10° SSE
Gbstr 26 Del rocket 4.1 04:43:30 51° SE 04:43:39 51° SE 04:49:24 10° NE
Thor Agena Rocket 3.7 04:43:40 10° SSE 04:48:31 73° ESE 04:48:31 73° ESE
Cosmos 2263 Rocket 4.2 04:45:52 10° SSE 04:50:33 27° ESE 04:55:17 10° NE
Cosmos 1340 Rocket 3.9 04:57:16 42° ENE 04:57:19 42° E 05:01:06 10° SSE
Cosmos 1603 4.1 04:59:36 30° N 05:02:20 61° ENE 05:07:55 10° SSE
ATLAS 3B CENTAUR R/B 3.8 04:59:45 19° S 05:02:27 29° SE 05:11:23 10° E
DMSP 5D-2 F-14 4.5 05:01:49 10° N 05:07:15 80° WNW 05:12:40 10° SSW
COSMO-SKYMED 1 3.5 05:03:47 10° SSE 05:07:56 46° ENE 05:11:07 16° N
Milstar 3 Cent rocket 4.2 05:01:41 15° SW 05:09:40 35° S 05:15:25 10° ESE
OAO 2 Rocket 3.6 05:13:13 50° SSW 05:13:17 50° SSW 05:18:01 10° SE
NOAA 6 3.9 05:08:36 10° N 05:13:49 83° WNW 05:19:00 10° SSW
GPS 2-05 Rocket1 4.1 05:15:05 36° E 05:15:05 36° E 05:17:09 10° E
Cosmos 2058 3.0 05:14:29 50° NNE 05:15:27 74° E 05:19:36 10° SSE
Genesis I 3.6 05:16:38 53° S 05:16:38 53° S 05:19:41 10° SSE
Meteor 2-1 Rocket 4.1 05:14:42 10° S 05:20:19 88° WNW 05:26:06 10° N
ATLAS 2A CENTAUR R/B 3.7 05:24:15 28° SW 05:24:55 29° SSW 05:27:24 10° SE
Tiangong 2 2.8 05:31:09 23° NNE 05:31:09 23° NNE 05:32:53 10° NE
NOSS 3-1 (C) 4.1 05:26:38 25° NW 05:31:41 67° WSW 05:40:03 10° SSE
Cosmos 292 Rocket 4.0 05:28:32 15° N 05:32:28 71° ENE 05:37:16 10° SSE
Cosmos 1356 Rocket 3.7 05:31:38 10° N 05:35:46 67° E 05:39:57 10° SSE
Cosmos 1633 Rocket 4.5 05:32:37 10° N 05:36:41 38° E 05:40:43 10° SSE
SKYMED 3 4.4 05:33:36 10° S 05:37:55 75° WSW 05:41:31 15° NNW
Cosmos 1626 2.7 05:35:05 10° N 05:38:46 57° E 05:42:25 10° SSE
OPS 8737 4.1 05:39:18 55° WSW 05:39:54 73° WNW 05:43:04 10° NNE
SL-16 R/B 3.9 05:43:26 16° SW 05:43:26 16° SW 05:45:09 10° SW
Meteor 1-28 Rocket 3.1 05:44:10 10° SSE 05:47:55 89° WSW 05:51:40 10° NNW
SeaSat 1 4.2 05:47:13 10° NNW 05:48:49 15° NNW 05:48:49 15° NNW
Cosmos 2221 3.0 05:48:26 10° SW 05:52:23 34° W 05:56:20 10° NNW
Ariane Rocket 2.9 05:49:22 10° N 05:54:28 73° WNW 05:59:32 10° SSW
SKYMED 2 3.9 05:51:51 10° S 05:55:59 44° W 05:59:46 12° NNW
SL-8 R/B 3.6 05:55:14 24° NW 05:58:08 83° SW 06:02:56 10° SE
Cosmos 923 Rocket 4.1 05:55:40 11° NNW 06:00:34 53° WSW 06:05:40 10° S
YAOGAN 1 4.4 05:58:46 10° NNE 06:02:45 35° E 06:06:41 10° SSE
DELTA 2 R/B (1) 3.9 05:59:32 22° WNW 06:02:55 51° N 06:08:20 10° ENE
CZ-4 R/B 2.3 05:59:20 10° NNE 06:03:21 54° E 06:07:25 10° S
Cosmos 1703 3.6 06:00:47 10° NNW 06:04:32 43° W 06:08:16 10° SSW
Cosmos 1898 Rocket 3.5 05:59:49 10° SSW 06:05:03 86° ESE 06:10:23 10° NNE
Cosmos 2151 4.5 06:06:29 18° W 06:06:29 18° W 06:08:45 10° SW
Nadezhda 4 Rocket 4.1 05:59:53 10° N 06:06:14 84° E 06:12:29 10° S
Cosmos 2034 Rocket 4.1 06:00:28 10° SSW 06:06:29 54° W 06:12:36 10° N
SJ-12 4.5 06:02:27 10° NNE 06:06:29 60° E 06:10:29 10° S
Cosmos 1680 Rocket 3.5 06:02:05 10° NNW 06:07:19 62° WSW 06:12:33 10° S
DELTA 2 R/B(2) 3.4 06:09:18 40° NW 06:09:33 44° NNW 06:11:47 10° ENE
Cosmos 1666 Rocket 3.6 06:08:05 10° NNW 06:12:31 61° W 06:16:54 10° S
PAYLOAD A 3.8 06:10:37 10° N 06:15:30 73° WNW 06:20:14 10° SSW
IDEFIX/ARIANE 42P 2.8 06:11:32 10° NNE 06:16:49 75° ESE 06:22:04 10° S
Cosmos 2150 Rocket 4.1 06:14:03 10° SSW 06:19:29 85° WNW 06:24:53 10° NNE
Cosmos 1943 3.2 06:14:22 10° NNW 06:20:00 63° WSW 06:25:35 10° S
Cosmos 1184 Rocket 3.5 06:17:07 10° NNW 06:20:08 32° W 06:23:08 10° SSW
Cosmos 1933 Rocket 4.2 06:19:41 10° N 06:24:05 60° E 06:28:25 10° SSE
Cosmos 1092 Rocket 4.0 06:21:50 10° N 06:28:07 89° ESE 06:34:18 10° S
Coronas F rocket 2.1 06:27:14 10° NNW 06:29:17 25° W 06:31:20 10° SSW
Aureole 3 4.4 06:24:35 10° N 06:30:55 78° E 06:35:49 10° S
Gbstr 26 Del rocket 4.5 06:26:10 10° W 06:31:04 35° NNW 06:37:02 10° NE
CSL-04 Debris 4.4 06:26:04 10° N 06:31:18 47° WNW 06:36:29 10° SW
Cosmos 1937 Rocket 3.4 06:26:57 10° SSW 06:32:04 74° WNW 06:37:13 10° NNE
Cosmos 1484 Rocket 4.2 06:29:05 10° NNE 06:32:54 44° E 06:36:39 10° S
Cosmos 389 Rocket 3.6 06:29:56 10° SW 06:32:57 24° WNW 06:35:59 10° NNW
Cosmos 1726 2.4 06:29:38 10° S 06:33:18 74° E 06:37:00 10° N
Cosmos 2263 Rocket 2.8 06:29:08 10° SW 06:34:16 35° WNW 06:39:28 10° N
Cosmos 1844 Rocket 4.0 06:31:24 10° S 06:36:47 47° ESE 06:42:11 10° NNE
Cosmos 2344 3.9 06:35:38 10° WSW 06:42:57 46° NW 06:51:02 10° NNE
MSX 4.0 06:38:18 10° NNE 06:44:06 84° ESE 06:49:53 10° SSW
COSMO-SKYMED 1 4.4 06:42:36 10° WSW 06:44:17 12° W 06:45:59 10° WNW
Cosmos 1470 Rocket 3.5 06:41:05 10° NNW 06:45:23 66° W 06:49:42 10° S
NOSS 3-3 (A) 4.0 06:39:32 10° SW 06:45:36 63° NW 06:52:08 10° NNE
NOSS 3-3 (C) 4.0 06:39:39 10° SW 06:45:43 64° NW 06:52:15 10° NNE
MOS 1 4.3 06:40:58 10° NNE 06:46:41 82° WNW 06:52:23 10° SSW
